Showing default

BRO-8, 55011

Orbit data source: Space-Track

BRO-8, 55011 is a payload satellite owned by Unseen Labs (FR) in SSO that was launched on Tue, 03 Jan 2023 UTC via an FALCON 9 launch vehicle from the Air Force Eastern Test Range (AFETR). Payload-class satellites include a variety of spacecraft equipped with specific instruments for various scientific and technological missions. These include communications satellites like Starlink; space stations such as the ISS; scientific satellites like the Hubble; Earth observation satellites from companies like Planet Labs, Umbra, and HawkEye 360; GPS; miniature CubeSats for education and research; and military/defense satellites.

Loading next visibility...
Identifier
55011, 2023-001C
Orbit
SSO
Country
Flag of FRFR
Related business
Manufacturer
GOMSpace
Mission
Operational Commercial Sigint
Bus & Motor
CUBESAT 6U, Unknown motor
Mass
10 kg wet, ~10 kg dry
Launch date (UTC)
2023-01-03 (3 years ago)
Launch vehicle
FALCON 9
Launch site
Air Force Eastern Test Range (AFETR)
Object type
Payload
Rocket body
Debris
Shape & HBR
Box, 0.1 m
Radar Cross Section
0.080 m², Medium (>0.1 m² and < 1m²)

Expand to show TLE details & history
Last TLE update: 9 hours ago

TLE from 9 hours ago
0 BRO-8
1 55011U 23001C   25300.93364023  .00026844  00000-0  79173-3 0  9992
2 55011  97.3586 359.7221 0006784 234.4218 125.6394 15.34955415156419
Epoch: 2025-10-27T22:24Z
TLE epoch observation values (Epoch: 2025-10-27T22:24:26.515Z)
Latitude
-0.00001°
Longitude
-12.91675°
Altitude
466.871 km
Speed
7.631 km/s
True Right ascension
23h 58m 53s
True Declination
0° 00' 00"
Sunlit
Object was in full shadow at epoch
Visualization orbit readout
Latitude
Unknown
Longitude
Unknown
Altitude
Unknown
Speed
Unknown
Apparent Right ascension
Unknown
Apparent Declination
Unknown
Sunlit
N/A
Visualization observer readout
Local Sidereal Time
03:00:32
Azimuth
Unknown
Elevation
Unknown
Doppler factor
Unknown
Orbital elements
Apogee altitude
462.634 km
Perigee altitude
453.359 km
Semi-major axis
6,836.134 km
Eccentricity
0.00068
Inclination
97.3586°
RAAN
359.7221°
Arg. of periapsis
234.4218°
True anomaly
125.70255°
Mean anomaly
125.6394°
Eccentric anomaly
125.67098°
Mean motion
3.83997 °/min
Orbital period
93.75 mins
BSTAR
0.00079173
Loading maneuver chart data...
Computing Atmospheric mass density...
Loading historical data...
Loading historical data...
Loading historical data...
Loading historical data...
Loading historical data...
Loading historical data...
Loading historical data...

Documentation

Showing up to 5 results
|